< < Back
Terminal Aerodrome Forecast


Current Version              Previous Versions:   1  2  3  4  5  6  7  8  9  

Terminal Aerodrome Forecast

621
FTUS42 KTAE 282321
TAFDHN
TAF
KDHN 282321Z 2900/2924 VRB06KT P6SM BKN100
     FM290200 VRB03KT P6SM SCT150
     FM291500 10005KT P6SM FEW050=

Latest METAR

740
SAUS70 KWBC 290400 RRG
MTRDHN
METAR KDHN 290353Z AUTO 02004KT 10SM BKN120 21/20 A3019 RMK AO2 SLP219
T02110200


USA.gov is the U.S. government's official web portal to all federal, state and local government web resources and services.